TimeEDT,TemperatureF,Dew PointF,Humidity,Sea Level PressureIn,VisibilityMPH,Wind Direction,Wind SpeedMPH,Gust SpeedMPH,PrecipitationIn,Events,Conditions,WindDirDegrees,DateUTC
12:53 AM,62.1,53.1,72,29.69,10.0,SE,5.8,-,N/A,,Overcast,130,2013-04-19 04:53:00
1:53 AM,59.0,53.1,81,29.65,10.0,ESE,3.5,-,N/A,,Partly Cloudy,120,2013-04-19 05:53:00
2:53 AM,66.0,51.1,59,29.60,10.0,South,10.4,-,N/A,,Clear,170,2013-04-19 06:53:00
3:53 AM,68.0,50.0,52,29.57,10.0,South,12.7,23.0,N/A,,Clear,170,2013-04-19 07:53:00
4:53 AM,68.0,50.0,52,29.53,10.0,South,16.1,20.7,N/A,,Clear,170,2013-04-19 08:53:00
5:53 AM,68.0,50.0,52,29.50,10.0,South,15.0,25.3,N/A,,Clear,180,2013-04-19 09:53:00
6:53 AM,68.0,51.1,55,29.49,10.0,South,18.4,26.5,N/A,,Mostly Cloudy,180,2013-04-19 10:53:00
7:53 AM,68.0,51.1,55,29.47,10.0,South,20.7,32.2,N/A,,Partly Cloudy,170,2013-04-19 11:53:00
8:53 AM,66.9,54.0,63,29.45,10.0,South,15.0,24.2,0.00,Rain,Light Rain,180,2013-04-19 12:53:00
9:53 AM,64.0,55.9,75,29.41,10.0,South,17.3,28.8,0.05,,Overcast,170,2013-04-19 13:53:00
10:43 AM,50.0,44.6,82,29.47,10.0,WNW,15.0,41.4,0.02,,Overcast,300,2013-04-19 14:43:00
10:53 AM,48.9,44.1,83,29.48,10.0,WNW,16.1,27.6,0.02,,Overcast,300,2013-04-19 14:53:00
11:02 AM,48.2,42.8,82,29.48,1.5,WNW,16.1,29.9,0.08,Rain,Heavy Rain,290,2013-04-19 15:02:00
11:12 AM,46.4,42.8,87,29.50,2.0,WNW,18.4,31.1,0.10,Rain,Rain,290,2013-04-19 15:12:00
11:16 AM,46.4,42.8,87,29.50,3.0,WNW,17.3,31.1,0.10,Rain,Light Rain,290,2013-04-19 15:16:00
11:37 AM,46.4,42.8,87,29.50,9.0,West,13.8,23.0,0.12,Rain,Light Rain,280,2013-04-19 15:37:00
11:46 AM,46.4,42.8,87,29.51,10.0,West,13.8,21.9,0.12,,Overcast,270,2013-04-19 15:46:00
11:53 AM,46.9,42.1,83,29.53,10.0,West,15.0,26.5,0.12,,Overcast,280,2013-04-19 15:53:00
12:12 PM,46.4,41.0,81,29.54,2.5,West,15.0,21.9,0.06,Rain,Rain,280,2013-04-19 16:12:00
12:17 PM,44.6,41.0,87,29.55,3.0,West,17.3,26.5,0.07,Rain,Light Rain,270,2013-04-19 16:17:00
12:41 PM,44.6,39.2,81,29.56,2.5,West,18.4,27.6,0.12,Rain,Light Rain,270,2013-04-19 16:41:00
12:47 PM,44.6,39.2,81,29.56,4.0,West,17.3,23.0,0.13,Rain,Rain,280,2013-04-19 16:47:00
12:53 PM,44.1,39.0,82,29.57,6.0,West,15.0,23.0,0.14,Rain,Light Rain,280,2013-04-19 16:53:00
1:53 PM,43.0,37.9,82,29.61,10.0,West,12.7,23.0,0.00,,Overcast,280,2013-04-19 17:53:00
2:45 PM,44.6,35.6,71,29.62,10.0,West,15.0,26.5,N/A,,Overcast,270,2013-04-19 18:45:00
2:53 PM,44.1,35.1,71,29.64,10.0,West,17.3,27.6,N/A,,Overcast,260,2013-04-19 18:53:00
3:48 PM,46.4,33.8,62,29.66,10.0,WSW,21.9,31.1,N/A,,Overcast,250,2013-04-19 19:48:00
3:53 PM,46.0,33.1,61,29.66,10.0,WSW,18.4,31.1,N/A,,Overcast,250,2013-04-19 19:53:00
4:53 PM,46.0,32.0,58,29.68,10.0,WSW,19.6,28.8,N/A,,Overcast,240,2013-04-19 20:53:00
5:53 PM,45.0,30.0,56,29.73,10.0,WSW,19.6,31.1,N/A,,Overcast,250,2013-04-19 21:53:00
6:53 PM,44.1,28.9,55,29.73,10.0,WSW,15.0,26.5,N/A,,Overcast,250,2013-04-19 22:53:00
7:53 PM,43.0,28.0,56,29.76,10.0,WSW,20.7,29.9,N/A,,Overcast,250,2013-04-19 23:53:00
8:53 PM,42.1,28.0,58,29.78,10.0,WSW,21.9,33.4,N/A,,Overcast,250,2013-04-20 00:53:00
9:53 PM,41.0,27.0,57,29.81,10.0,West,18.4,25.3,N/A,,Overcast,270,2013-04-20 01:53:00
10:53 PM,39.9,26.1,58,29.83,10.0,WSW,13.8,26.5,N/A,,Overcast,250,2013-04-20 02:53:00
11:53 PM,39.9,25.0,55,29.83,10.0,WSW,16.1,28.8,N/A,,Overcast,240,2013-04-20 03:53:00